Weather History for New York, NY

Change the Weather History Date:

Thursday, June 7, 2012

  Actual Average Record
Temperature  
Mean Temperature 71 °F 70 °F  
Max Temperature 79 °F 78 °F 97 °F (1999)
Min Temperature 62 °F 61 °F 50 °F (2000)
Degree Days  
Heating Degree Days 0 1  
Month to date heating degree days 11 9  
Since 1 June heating degree days 11 9  
Since 1 July heating degree days 3612 4657  
Cooling Degree Days 6 6  
Month to date cooling degree days 20 35  
Year to date cooling degree days 143 101  
Since 1 June cooling degree days 20 35  
Growing Degree Days 20 (Base 50)    
Moisture  
Dew Point 55 °F    
Average Humidity 62    
Maximum Humidity 84    
Minimum Humidity 40    
Precipitation  
Precipitation 0.10 in 0.14 in 3.33 in (2013)
Month to date precipitation 1.48 0.98  
Year to date precipitation 14.18 18.67  
Snow  
Snow 0.00 in 0.00 in - ()
Month to date snowfall 0.0 0.0  
Since 1 July snowfall 5.1 26.9  
Snow Depth 0.00 in    
Sea Level Pressure  
Sea Level Pressure 29.94 in    
Wind  
Wind Speed 5 mph (NW)    
Max Wind Speed 17 mph    
Max Gust Speed 22 mph    
Visibility 10 miles    
Events Rain    
T = Trace of Precipitation, MM = Missing Value Source: NWS Daily Summary

Daily Weather History Graph

Daily Weather History Graph

Search for Another Location

Airport:

Trip Planner

Search our weather history database for the weather conditions in past years. The results will help you decide how hot, cold, wet, or windy it might be!

Date:

Astronomy

Jun. 07, 2012 Rise Set
Actual Time 5:24 AM EDT 8:25 PM EDT
Civil Twilight 4:51 AM EDT 8:58 PM EDT
Nautical Twilight 4:09 AM EDT 9:40 PM EDT
Astronomical Twilight 3:19 AM EDT 10:29 PM EDT
Moon 11:12 PM EDT (6/7) 8:53 AM EDT (6/7)
Length of Visible Light 16h 07m
Length of Day
15h 00m
Waning Gibbous, 86% of the Moon is Illuminated
Jun 7
Waning Gibbous
Jun 11
Last Quarter
Jun 19
New
Jun 26
First Quarter
Jul 3
Full

Hourly Weather History & Observations

Time (EDT) Temp. Dew Point Humidity Pressure Visibility Wind Dir Wind Speed Gust Speed Precip Events Conditions
12:51 AM 63.0 °F 55.0 °F 75% 29.96 in 10.0 mi SSW 8.1 mph - N/A   Scattered Clouds
1:51 AM 63.0 °F 55.0 °F 75% 29.97 in 10.0 mi Calm Calm - N/A   Mostly Cloudy
2:51 AM 63.0 °F 55.9 °F 78% 29.96 in 10.0 mi North 3.5 mph - 0.00 in   Mostly Cloudy
3:51 AM 62.1 °F 57.9 °F 86% 29.94 in 10.0 mi SSW 3.5 mph - N/A   Mostly Cloudy
4:51 AM 63.0 °F 57.0 °F 81% 29.95 in 10.0 mi Calm Calm - N/A   Mostly Cloudy
5:51 AM 62.1 °F 57.0 °F 84% 29.96 in 10.0 mi WNW 3.5 mph - N/A   Mostly Cloudy
6:51 AM 63.0 °F 57.0 °F 81% 29.97 in 10.0 mi NW 6.9 mph - N/A   Scattered Clouds
7:51 AM 64.0 °F 55.0 °F 73% 29.97 in 10.0 mi NW 5.8 mph - N/A   Scattered Clouds
8:51 AM 66.0 °F 53.1 °F 63% 29.97 in 10.0 mi NW 3.5 mph - N/A   Scattered Clouds
9:51 AM 69.1 °F 53.1 °F 57% 29.97 in 10.0 mi North 4.6 mph - N/A   Scattered Clouds
10:51 AM 71.1 °F 52.0 °F 51% 29.96 in 10.0 mi NW 5.8 mph - N/A   Scattered Clouds
11:51 AM 73.0 °F 51.1 °F 46% 29.95 in 10.0 mi WNW 8.1 mph - N/A   Scattered Clouds
12:51 PM 73.9 °F 53.1 °F 48% 29.94 in 10.0 mi Variable 3.5 mph - N/A   Scattered Clouds
1:51 PM 75.0 °F 52.0 °F 44% 29.93 in 10.0 mi NE 8.1 mph - N/A   Scattered Clouds
2:51 PM 75.0 °F 51.1 °F 43% 29.91 in 10.0 mi NE 8.1 mph - N/A   Mostly Cloudy
3:51 PM 77.0 °F 51.1 °F 40% 29.90 in 10.0 mi ENE 6.9 mph - N/A   Mostly Cloudy
4:17 PM 73.4 °F 55.4 °F 53% 29.90 in 9.0 mi SSE 13.8 mph 20.7 mph N/A   Mostly Cloudy
4:51 PM 73.0 °F 55.0 °F 53% 29.91 in 10.0 mi SSE 15.0 mph - N/A   Mostly Cloudy
5:51 PM 72.0 °F 55.0 °F 55% 29.90 in 10.0 mi South 11.5 mph - N/A   Mostly Cloudy
6:51 PM 70.0 °F 57.9 °F 65% 29.92 in 9.0 mi Variable 4.6 mph - 0.07 in Rain Light Rain
7:51 PM 68.0 °F 59.0 °F 73% 29.93 in 10.0 mi SE 8.1 mph - 0.03 in   Mostly Cloudy
8:51 PM 70.0 °F 57.9 °F 65% 29.93 in 10.0 mi SW 5.8 mph - N/A   Scattered Clouds
9:51 PM 71.1 °F 55.0 °F 57% 29.94 in 10.0 mi Calm Calm - N/A   Scattered Clouds
10:51 PM 66.0 °F 60.1 °F 81% 29.94 in 10.0 mi ENE 3.5 mph - N/A   Partly Cloudy
11:51 PM 66.0 °F 61.0 °F 84% 29.94 in 10.0 mi Calm Calm - N/A   Clear